Theta_e
305 305 304 302 302 302 301 301 302 303 302 302 303 303 304 303 303 295 290 290 289 284 285 289 291 285 285 283 280 282 281 282 281 280 282 283 287 289 286 290 289 289 287 286 289 286 285 306 304 299 302 305 307 308
305 303 301 301 302 302 302 302 302 302 302 302 303 302 303 302 303 298 287 292 292 286 285 289 292 293 291 289 284 282 280 281 284 280 281 281 280 282 284 282 293 287 291 288 290 289 299 304 304 307 308 306 308 308
302 300 301 301 301 302 301 300 302 302 302 302 303 303 303 302 301 300 295 293 288 283 284 283 285 290 292 292 292 283 283 285 285 286 283 282 282 285 281 284 286 290 293 289 291 295 298 299 307 308 307 309 311 312
300 301 301 301 301 300 300 301 302 302 303 303 303 303 303 303 302 301 295 294 294 285 282 283 292 290 295 292 291 292 288 287 286 286 283 282 281 286 282 285 282 286 289 288 289 293 297 301 298 301 303 307 311 313
300 301 301 300 300 301 301 302 302 301 301 301 301 302 302 302 301 297 293 292 293 286 280 281 287 290 290 290 290 290 288 286 282 281 281 280 283 284 283 282 284 286 284 283 284 292 291 293 297 299 297 299 306 310
300 300 300 301 301 301 301 301 302 301 301 301 302 302 302 301 300 291 284 292 293 296 287 280 286 288 290 290 289 288 288 285 284 282 282 284 287 285 281 279 283 286 288 290 288 292 293 294 296 297 297 299 303 312
301 301 300 301 301 301 300 301 301 301 302 302 302 302 302 302 293 286 283 293 300 299 288 281 279 285 288 287 285 284 286 284 284 283 282 283 284 289 284 281 286 289 291 291 293 293 291 293 291 295 296 298 302 313
300 300 300 300 300 300 301 301 301 302 302 302 302 302 302 302 296 293 292 300 300 292 286 280 279 281 285 282 283 286 283 283 283 283 282 283 283 284 281 286 288 290 291 292 293 294 293 293 294 296 299 302 310 312
300 300 300 300 300 301 301 301 301 302 302 302 301 301 294 294 289 288 300 299 292 289 279 282 277 276 284 281 282 282 283 280 285 282 282 283 281 279 284 287 288 291 290 291 293 293 293 292 294 298 304 307 309 312
300 300 301 301 301 301 301 301 302 301 301 302 292 287 282 287 299 301 293 290 287 289 288 282 285 279 282 280 280 279 281 280 278 282 285 280 282 288 290 291 291 291 292 292 289 289 291 293 295 295 297 301 310 312
300 300 301 300 301 301 301 301 301 301 298 289 284 284 288 297 289 288 285 284 286 283 286 285 282 280 285 280 280 282 279 280 280 281 282 281 280 286 292 295 296 299 300 298 294 294 294 294 294 295 297 304 312 313
300 300 301 301 301 300 300 301 301 293 288 289 288 290 288 285 287 283 282 282 282 279 281 280 281 284 287 289 284 284 280 281 278 285 282 280 285 291 294 296 297 299 302 300 294 294 295 295 296 297 301 311 314 312
300 300 301 301 301 301 301 301 301 299 297 295 287 285 283 280 277 277 276 276 276 282 284 284 284 289 290 289 286 284 280 280 285 281 281 284 291 293 296 296 297 301 302 302 299 295 296 296 298 299 305 313 313 311
300 301 301 301 301 300 301 301 301 300 292 286 284 276 279 277 278 276 279 279 283 285 287 287 286 286 287 284 287 283 284 283 279 279 281 287 289 292 294 297 298 298 299 300 300 301 302 298 297 303 311 313 313 310
300 300 301 300 301 300 301 302 301 293 289 285 285 278 278 281 281 282 284 285 288 291 289 287 287 288 286 285 285 283 280 279 281 283 287 290 293 294 295 297 297 299 300 300 302 301 299 299 305 310 313 313 313 310
300 299 296 300 301 300 300 297 292 291 288 286 285 282 282 280 281 282 284 286 291 288 287 288 285 284 284 285 283 282 280 280 282 289 292 292 293 295 296 298 298 299 302 302 302 303 305 309 310 312 314 313 312 308
297 290 299 300 300 300 299 291 290 288 284 284 282 283 282 281 282 284 284 285 289 287 284 287 282 282 287 283 282 285 283 288 289 290 292 293 294 295 297 298 300 302 302 302 302 307 311 313 313 312 309 310 311 309
289 292 298 299 297 295 292 294 286 285 283 283 280 281 281 283 283 283 284 286 288 288 286 286 288 283 282 281 283 287 288 289 292 293 294 295 296 297 298 299 299 302 301 301 303 311 311 311 311 311 310 309 308 307
293 294 298 299 295 288 285 291 291 282 283 283 283 283 283 284 285 287 287 288 290 291 290 290 285 284 283 285 286 287 289 291 291 293 295 297 298 299 300 299 299 301 301 300 308 308 310 312 311 312 310 308 305 306
299 299 301 300 297 286 286 284 291 287 282 283 284 283 283 284 286 286 287 289 290 290 289 287 285 287 287 289 292 292 293 294 293 293 293 296 299 300 298 298 300 301 300 306 308 305 310 310 311 310 309 307 306 304
295 298 300 296 292 289 285 283 283 285 284 282 284 284 284 286 285 285 287 292 289 289 287 289 290 292 293 294 294 294 294 295 293 294 293 293 297 299 299 301 301 301 302 307 308 306 307 309 310 309 308 307 307 306
291 299 293 295 290 290 289 287 284 285 284 285 286 286 284 284 286 291 294 290 289 291 292 291 292 291 291 290 292 293 294 294 295 294 293 295 296 297 298 300 301 299 301 306 309 310 310 311 311 310 308 306 304 304
297 297 292 292 288 284 283 289 285 286 283 285 288 286 287 288 291 295 289 290 289 294 294 292 292 292 291 292 292 292 293 293 293 293 295 296 297 298 300 302 303 300 304 308 311 310 308 302 303 306 306 305 303 301
298 291 287 285 285 283 288 286 289 287 288 286 286 286 288 289 292 288 286 287 289 292 290 290 291 291 293 293 291 292 293 295 294 293 295 295 296 299 301 301 303 305 306 310 310 309 309 307 302 306 305 303 303 302
285 284 285 282 285 283 281 282 283 284 283 286 285 285 287 290 285 285 285 287 289 289 289 291 293 293 292 295 296 294 295 293 291 292 295 297 297 298 299 301 303 303 308 309 308 308 307 308 306 305 304 303 302 300
281 284 282 281 281 281 282 282 284 285 286 285 287 289 290 287 286 283 285 288 288 288 290 291 291 292 294 296 294 292 293 294 293 293 295 296 297 297 298 298 298 301 304 308 308 307 306 305 306 305 304 299 293 300
283 286 287 290 288 288 286 287 287 286 286 287 288 287 285 282 282 286 290 290 289 292 294 295 295 295 297 298 298 296 293 293 294 297 298 298 300 300 300 299 300 302 304 307 309 309 306 305 305 304 303 303 302 301
289 290 287 289 288 289 287 287 287 287 287 289 289 286 285 284 284 287 287 292 294 295 295 296 298 299 300 300 298 294 294 296 300 300 300 301 302 302 302 302 301 292 302 307 307 309 309 307 306 304 303 302 302 303
286 289 289 288 289 288 288 287 288 290 291 289 287 287 286 290 293 293 294 294 295 294 293 293 296 300 301 302 302 302 299 298 296 296 296 297 300 301 301 302 302 302 302 300 289 299 306 306 306 305 305 304 303 301
287 290 288 287 288 288 290 292 291 293 294 292 292 294 292 293 295 297 295 294 292 292 293 293 295 297 298 298 299 301 301 301 302 301 298 299 299 301 302 302 302 301 302 301 300 299 293 302 299 304 302 300 299 298
288 288 287 287 288 291 293 294 293 292 291 289 291 291 291 292 295 297 295 294 294 294 292 291 293 296 296 298 297 296 296 299 298 300 300 305 306 304 304 304 305 305 305 304 304 303 302 302 302 301 300 299 297 297
287 286 285 284 286 290 292 291 290 288 288 287 287 289 290 290 289 292 295 294 292 291 290 291 291 292 297 301 301 300 291 297 294 295 297 304 307 307 306 307 308 306 305 303 303 302 301 300 300 300 298 298 298 297
286 286 286 285 285 286 287 288 289 288 288 286 286 287 287 288 287 291 296 296 293 292 291 292 293 296 300 302 300 299 296 300 294 288 287 288 290 297 306 307 306 306 305 304 303 302 301 300 299 298 297 296 296 295
Wind_Speed
17 16 13 9 6 5 5 6 7 7 5 5 5 5 6 4 5 4 2 1 3 1 5 4 4 4 1 3 4 3 5 2 3 2 1 2 3 3 3 3 3 5 5 5 4 4 8 3 4 2 4 6 7 8
16 15 10 9 10 9 10 7 9 7 6 5 5 4 4 4 5 5 1 2 2 2 6 3 6 5 8 8 6 1 3 3 4 2 1 1 2 4 2 4 1 3 4 3 6 6 3 2 5 5 5 11 11 7
14 7 10 9 9 9 5 5 8 6 7 7 7 6 5 2 2 1 2 1 3 2 5 2 5 4 4 7 7 5 3 6 3 4 3 3 5 2 3 4 4 5 4 4 4 1 5 7 4 2 9 10 12 12
9 11 10 10 7 6 7 11 7 7 7 6 5 6 7 4 4 2 2 3 1 1 3 7 3 6 4 6 10 15 3 2 3 2 1 4 3 4 4 4 3 5 6 5 9 12 9 4 14 11 17 16 15 13
9 8 8 6 7 10 10 7 5 5 5 5 6 5 5 3 5 2 2 3 3 5 3 6 12 7 5 8 10 9 10 7 2 1 4 5 4 1 3 1 12 5 6 6 10 4 5 18 13 17 19 20 19 15
10 9 11 11 9 6 5 6 6 4 6 6 7 7 6 5 3 3 4 2 3 2 1 4 5 5 4 6 8 8 11 4 5 5 5 5 5 5 5 5 5 8 7 12 14 6 12 15 17 18 13 15 19 16
7 5 4 3 4 3 3 4 5 5 7 8 8 7 6 5 3 3 5 3 5 2 1 5 5 5 5 4 1 2 4 4 4 4 5 4 4 8 7 20 4 10 10 13 15 16 23 21 15 18 18 20 18 14
5 4 4 4 4 4 5 5 4 5 5 6 5 6 7 3 2 4 4 12 3 0 2 3 6 6 2 3 3 2 4 3 4 5 1 5 1 4 12 13 13 13 15 18 20 19 21 18 15 19 17 14 13 12
2 3 3 3 4 4 4 4 5 4 6 4 1 5 4 2 2 4 6 3 2 3 2 4 3 5 4 2 2 4 2 2 2 5 5 5 4 8 8 13 16 18 14 17 16 14 13 11 16 16 11 13 13 7
3 2 1 2 5 6 6 5 5 3 2 8 4 3 1 4 5 3 3 2 2 3 3 5 3 5 2 2 3 2 1 4 3 6 3 5 11 22 20 18 13 12 11 15 17 17 14 10 10 11 13 14 12 7
4 4 3 3 3 4 7 8 6 4 7 2 2 3 4 5 2 1 2 2 1 3 4 4 6 5 2 4 4 4 3 3 4 6 5 4 5 6 3 5 6 9 12 16 20 20 18 11 14 14 15 15 6 8
5 5 5 4 3 2 2 5 5 4 3 5 4 1 2 3 1 3 3 2 4 5 3 4 5 6 3 3 4 3 4 2 7 3 4 4 3 4 5 7 10 9 13 15 13 16 17 13 13 12 11 9 3 5
7 7 6 5 4 4 4 6 7 6 5 1 2 1 3 2 2 5 5 4 3 4 4 4 4 4 3 4 4 4 5 6 1 3 4 1 8 9 10 10 13 11 12 11 9 10 14 14 14 11 9 5 5 6
9 9 4 3 0 1 3 6 7 9 3 2 3 3 5 5 6 6 5 4 5 2 4 4 4 4 3 4 4 4 5 2 4 4 1 2 9 13 16 15 15 15 14 15 14 11 13 13 12 10 12 11 10 9
10 5 6 8 6 3 4 5 10 3 3 3 2 5 7 6 4 5 5 3 3 4 6 4 4 4 4 4 4 3 4 6 3 2 2 5 10 12 13 11 16 16 14 14 12 11 10 11 9 9 10 11 12 9
7 1 4 7 6 5 6 5 3 1 0 2 5 5 4 1 5 3 4 6 5 2 2 2 3 3 3 2 3 5 4 4 2 2 4 9 13 12 13 13 16 16 14 12 11 10 8 11 11 10 7 11 11 13
3 1 5 6 7 7 3 3 1 3 4 4 5 4 4 4 6 6 4 5 2 4 3 3 4 6 1 3 4 4 4 2 2 6 8 10 13 13 12 17 13 15 12 10 8 6 8 10 10 8 9 5 15 12
1 1 6 6 5 3 2 3 1 3 5 5 4 4 4 4 4 5 5 3 4 4 3 5 3 5 4 4 4 3 1 3 6 9 9 12 14 14 11 13 15 14 12 10 7 7 9 11 11 8 8 10 12 13
5 6 10 7 2 2 1 3 3 4 7 3 5 3 4 5 5 8 7 6 6 3 2 2 5 3 4 5 4 3 3 4 9 10 10 13 12 12 13 14 15 14 13 9 4 5 7 8 6 8 9 9 9 9
10 8 7 5 8 2 3 4 2 4 5 4 3 4 4 5 4 4 5 3 4 3 5 5 6 4 3 3 3 4 4 6 7 9 10 8 8 9 13 14 11 14 9 3 6 8 9 8 4 10 11 10 11 10
5 1 7 5 1 3 3 3 4 4 4 3 3 2 5 3 4 3 3 1 3 4 3 3 3 6 8 7 7 8 8 6 8 7 8 9 10 10 12 12 10 7 1 3 7 7 8 8 5 10 11 8 8 8
3 2 1 2 3 3 4 3 4 3 3 4 3 2 4 4 3 2 2 4 3 1 2 3 6 9 9 9 8 8 7 8 10 8 9 7 7 11 11 9 8 5 1 6 7 8 8 8 10 10 10 9 9 9
4 0 1 2 2 2 6 1 3 3 3 4 4 3 3 3 2 3 2 2 2 3 6 8 11 12 12 13 12 11 10 10 7 7 6 6 6 9 9 7 5 2 5 7 7 8 9 12 10 12 11 11 9 9
0 0 2 2 2 4 3 3 2 3 3 3 3 4 3 3 3 2 3 2 4 8 8 11 9 8 8 8 8 7 5 5 5 5 6 5 6 7 6 6 5 4 3 7 9 10 10 11 12 10 11 12 10 11
0 2 1 3 2 3 3 3 3 2 3 3 3 3 3 3 3 3 4 4 7 11 12 12 12 10 8 5 2 2 5 4 3 3 4 3 4 4 3 1 5 5 3 7 7 7 8 11 11 12 13 12 13 14
3 4 3 2 2 2 2 3 2 3 3 2 2 4 2 3 4 4 3 8 8 10 13 12 11 9 8 2 2 2 3 3 3 2 3 3 3 2 4 5 5 6 5 3 8 9 9 9 11 13 13 12 12 16
3 2 3 2 2 2 4 4 4 3 3 3 3 4 4 5 4 4 5 4 9 12 12 10 10 9 5 3 3 3 3 2 3 2 3 3 2 2 2 3 4 3 3 4 5 8 11 11 11 10 11 12 13 14
4 2 3 2 3 3 3 4 3 3 3 3 2 6 4 7 4 4 4 9 10 11 13 10 9 8 5 5 4 3 3 2 4 4 3 2 3 3 4 3 3 8 4 4 5 6 8 10 11 12 11 12 10 10
3 2 2 4 2 3 2 2 3 3 3 2 3 3 1 2 3 5 7 10 9 9 11 12 12 10 7 6 6 5 4 3 3 5 5 4 4 6 6 4 5 4 4 6 8 7 10 11 12 11 11 10 9 10
2 3 1 1 2 4 3 1 2 2 3 2 2 2 1 2 3 5 9 11 11 11 11 11 9 11 11 10 8 8 6 6 5 3 2 3 3 3 3 4 4 4 5 8 10 11 14 14 13 11 11 10 10 10
3 2 1 3 2 1 1 1 3 4 4 4 4 2 1 2 3 4 9 12 11 10 12 13 12 12 12 11 11 9 9 8 10 9 5 3 4 4 4 5 4 5 7 8 8 10 11 10 10 13 13 14 14 14
4 4 2 2 2 3 2 1 1 2 2 4 5 4 3 3 5 7 7 10 12 12 14 12 11 11 11 8 6 4 4 6 8 7 9 5 6 6 6 6 7 7 8 10 10 11 14 13 11 12 13 15 14 15
2 3 3 2 4 4 3 2 0 1 2 2 3 3 3 3 5 4 4 8 10 8 9 10 9 9 10 10 11 8 8 7 9 10 8 7 8 8 7 6 7 8 10 10 10 11 13 18 14 15 14 14 14 14
Wind_Direction
198 192 177 172 217 206 246 268 276 265 265 290 306 342 355 350 5 92 278 7 107 198 271 219 220 171 128 163 161 269 359 304 339 88 186 287 262 282 306 252 235 205 192 215 189 207 258 351 18 278 286 309 292 293
171 154 169 210 207 222 251 251 270 241 260 270 283 291 303 341 11 110 38 309 77 156 242 258 232 218 195 199 136 222 217 226 223 83 274 294 305 316 295 275 134 265 206 249 196 222 247 266 228 277 286 287 293 260
135 152 197 208 226 234 207 257 254 255 265 270 273 275 296 292 327 75 172 202 60 21 297 356 239 268 226 227 175 167 250 212 246 175 167 243 244 161 248 260 313 333 31 260 351 293 272 293 294 346 328 319 297 280
165 190 200 223 188 188 221 242 250 260 268 280 273 273 275 257 287 289 203 170 157 121 283 279 313 280 208 160 182 206 164 68 101 108 164 236 217 185 233 250 195 218 351 322 285 295 298 215 352 341 329 320 303 299
183 159 146 169 205 226 231 240 234 250 266 276 280 283 305 264 296 54 194 225 184 147 251 290 307 266 223 209 202 197 214 218 141 77 207 225 224 190 231 234 252 184 224 241 260 268 301 295 321 315 314 308 308 303
148 167 197 213 219 210 217 237 246 251 263 268 274 277 276 274 79 48 6 341 184 189 266 287 278 292 289 213 209 203 207 181 174 181 215 226 224 161 244 242 222 197 217 230 261 276 284 289 295 299 290 300 301 296
167 159 163 188 185 183 211 234 247 261 269 270 267 269 274 254 114 152 188 183 159 146 311 297 296 279 290 290 352 124 141 180 163 210 229 216 226 197 245 252 215 246 255 270 268 279 285 288 284 294 291 289 290 280
133 159 177 196 210 225 235 241 260 285 289 284 280 258 259 257 76 278 252 219 187 197 83 277 274 328 314 309 317 166 152 193 205 215 267 208 148 176 252 263 245 243 243 249 252 254 261 275 288 285 282 287 275 280
159 172 190 208 224 229 235 248 260 278 292 267 187 108 57 157 212 239 275 72 94 145 205 223 247 264 348 310 271 324 60 253 197 211 222 136 193 219 230 236 242 247 238 251 251 247 256 250 269 272 286 294 279 281
74 42 299 254 242 238 238 258 220 273 311 121 67 69 265 220 272 265 332 145 155 205 216 242 222 263 55 344 297 317 232 240 272 244 128 201 241 243 247 254 261 265 255 247 250 257 255 246 248 278 287 296 275 195
33 14 356 332 336 274 236 216 211 114 82 62 130 210 243 312 61 149 207 234 171 252 212 238 203 227 241 201 228 219 252 243 259 262 182 244 265 249 235 265 273 285 277 271 236 240 250 247 265 277 288 295 265 186
12 360 344 322 292 320 65 177 160 110 178 187 172 95 24 45 158 241 206 222 214 240 218 199 216 199 235 177 207 222 241 179 251 174 215 246 248 282 299 285 279 288 305 300 242 229 239 243 248 256 269 267 131 116
356 340 328 314 291 265 234 238 193 171 130 85 64 30 97 253 189 214 213 227 235 220 224 209 225 200 230 211 226 209 220 238 339 230 229 124 349 334 312 309 312 319 300 291 282 238 241 240 243 234 246 191 119 96
348 333 338 344 273 30 241 247 224 161 90 175 178 236 212 213 226 204 208 203 234 239 332 294 266 241 202 200 231 255 227 298 254 234 269 0 340 303 295 295 301 307 294 289 279 270 252 231 233 227 211 187 151 141
355 48 45 38 81 76 77 118 124 77 136 205 212 236 220 230 247 229 232 263 252 242 263 276 242 217 199 235 213 287 263 242 236 67 266 260 277 266 283 298 309 296 288 286 283 275 237 212 192 187 193 163 161 149
352 96 29 33 53 48 72 73 49 74 310 227 231 245 237 301 272 242 237 241 234 218 78 181 272 266 220 227 227 232 272 264 193 244 283 292 290 291 297 304 300 296 280 286 281 262 204 172 161 171 174 161 146 152
16 120 352 0 16 8 78 80 29 214 220 229 239 218 230 262 244 254 206 241 158 134 226 207 248 237 252 233 224 215 235 322 278 296 312 287 289 300 300 287 296 301 307 299 287 204 155 142 137 136 144 180 162 153
45 296 351 351 22 343 304 175 200 260 259 238 232 231 203 226 241 254 239 196 157 203 169 219 213 218 221 244 239 233 286 304 298 303 302 298 299 297 286 303 307 312 320 309 269 162 140 155 152 170 143 122 119 127
260 279 287 283 187 108 208 220 169 257 246 249 255 239 223 240 230 246 254 248 212 186 209 220 234 219 220 220 248 267 284 329 309 300 289 290 290 294 310 314 316 325 327 313 183 137 131 136 134 137 129 123 123 126
305 305 274 200 152 128 257 264 233 247 265 241 239 256 223 226 236 237 246 221 172 189 214 225 229 233 230 265 225 258 273 288 291 289 293 306 313 314 318 313 310 318 318 295 120 115 110 105 103 134 124 127 131 127
328 89 97 105 165 200 239 255 256 227 268 261 284 259 260 277 260 263 271 158 190 215 236 243 280 306 312 303 289 284 272 268 272 267 288 306 318 317 307 307 313 316 299 126 113 102 107 115 99 92 98 102 105 115
264 325 117 210 230 224 245 222 234 269 272 254 294 256 286 303 292 275 292 216 232 224 248 250 291 298 292 281 274 274 281 283 280 274 277 282 308 302 306 316 322 325 232 125 121 115 108 124 120 113 109 97 89 108
287 195 262 246 279 295 263 145 253 239 269 298 325 281 258 269 287 346 279 357 289 264 301 294 289 286 276 273 268 263 256 251 258 270 286 280 289 285 288 306 330 316 121 104 108 108 107 104 97 111 115 109 111 109
69 258 252 251 239 271 324 270 271 272 266 265 269 276 283 300 335 339 292 293 275 311 312 306 294 294 288 253 241 234 225 210 233 265 265 284 296 297 309 313 342 41 62 113 118 119 120 112 115 112 116 119 128 122
88 237 242 255 244 270 270 281 260 262 266 279 288 303 311 326 320 333 329 298 317 325 329 325 328 328 317 293 308 141 154 167 171 238 275 256 275 279 303 45 57 36 21 115 110 106 121 122 118 124 136 132 131 123
244 219 196 233 266 222 278 281 288 305 293 287 282 276 299 326 353 335 310 319 321 325 323 326 322 319 313 18 50 104 165 168 144 201 285 309 303 349 340 16 18 38 21 92 123 121 108 111 126 134 124 122 119 120
266 242 207 226 282 275 272 248 251 276 288 317 325 333 10 10 346 324 299 311 319 323 315 321 316 327 344 38 50 65 105 148 183 216 304 326 312 305 2 16 21 353 348 98 115 129 131 135 132 126 129 128 129 129
247 245 259 219 215 227 284 295 299 331 320 324 329 25 23 2 332 291 277 303 319 318 319 335 343 345 23 50 52 76 54 339 324 313 299 269 61 37 5 356 33 50 58 89 107 111 120 126 127 125 128 123 121 132
256 204 184 270 212 212 249 315 347 340 306 4 49 40 16 304 296 314 326 335 335 344 340 351 354 1 30 55 45 42 39 19 15 28 30 8 16 6 359 10 26 47 61 81 57 82 110 115 117 116 113 109 105 113
290 172 242 269 34 24 348 359 356 329 24 57 97 118 124 274 279 318 348 355 351 353 347 338 356 11 20 23 29 45 39 23 10 15 13 31 15 320 6 37 58 64 80 96 101 100 95 101 101 102 100 98 98 102
322 339 68 41 67 5 163 230 36 46 35 31 15 80 62 333 315 348 0 354 353 357 356 357 360 0 5 12 16 14 4 2 357 4 10 57 67 52 46 50 60 76 87 93 102 107 108 104 110 115 114 116 124 120
357 29 16 38 356 317 342 319 77 73 25 28 4 2 7 13 16 350 354 355 354 360 351 347 351 348 344 1 2 11 9 357 353 352 3 22 62 68 70 67 78 89 96 98 102 106 105 108 112 116 118 123 127 128
343 5 34 32 1 357 326 11 140 82 56 61 25 22 20 26 10 328 323 359 352 342 343 337 327 327 332 6 18 10 4 14 23 24 14 23 51 56 58 60 68 76 86 89 90 96 102 107 106 107 107 110 113 115